Weather in Novostroyka

Russia / Irkutsk Oblast     52°58′47″N   101°49′48″E
temp.,
°C
wind,
m/s
gust,
m/s
humid.,
%
clouds,
%
prec.,
mm/h
press.,
hPa
HPBL,
m
15 april, thu
thu1523:00−1ssw2479100 0.1 101999
02:00−3s2589100 0.1 1016128
05:00−2sw1268100 0.1 101486
08:000wnw1857100 0.3 1013445
11:00+2nw101759100 0.4 10152118
14:00+3nw8134794 1.4 10202195
17:00+2nw6125075 0.3 10221976
20:00−2nw237099 0.3 102537
16 april, fri
fri1623:00−3sw117793 0.0 102613
02:00−4ssw22815 0.0 102530
05:00−5ssw227128 0.0 102447
08:00−1sw234830 0.0 1022168
11:00+8ssw23329 0.0 1018694
14:00+11ssw343297 0.0 10151068
17:00+12w23345 0.0 10131233
20:00+6sw22585 0.0 101411
17 april, sat
sat1723:00+2sw22735 0.0 101437
02:00+1sw22705 0.0 101230
05:000sw227152 0.0 101135
08:00+4sw24580 0.0 1010108
11:00+14wsw25314 0.0 10071115
14:00+8nnw6755100 0.0 1011939
17:00+4n4564100 0.0 10141083
20:000nne2594100 0.4 1018464
18 april, sun
sun1823:00−2nne3590100 1.3 1019517
02:00−4nnw1292100 1.8 1018175
05:00−4ene1193100 0.3 1016211
08:00−3se237983 0.5 1014551
11:00+3sse11598 0.0 1012670
14:00+8n244619 0.0 10111362
17:00+4n687368 0.1 1015929
20:00+1nw386282 0.3 1019670
19 april, mon
mon1923:00−1s0076100 0.1 102210
02:00−2ese118194 0.1 102211
05:00−4se118466 0.0 102116
08:00−1se37645 0.0 1018479
11:00+5se344965 0.0 1013742
14:00+11se3542100 0.0 1008855
17:00+14se35388 0.0 1003774
20:00+8s22615 0.0 100211